Regional Weather Roundup
Issued by NWS Jackson, KY

Home | Current Version | Previous Version | Text Only | Print | Product List | Glossary Off
Versions: 1 2 3 4 5 6 7 8 9 10 11 12 13 14 15 16 17 18 19 20 21 22 23 24 25 26 27 28 29 30 31 32 33 34 35 36 37 38 39 40 41 42 43 44 45 46 47 48 49 50

000
ASUS43 KJKL 011510
RWRJKL

EAST KENTUCKY HOURLY WEATHER ROUNDUP
NATIONAL WEATHER SERVICE JACKSON KY
1100 AM EDT TUE SEP 01 2015

NOTE: "FAIR" INDICATES FEW OR NO CLOUDS BELOW 12,000 FEET WITH
NO SIGNIFICANT WEATHER AND/OR OBSTRUCTIONS TO VISIBILITY.

* THESE REPORTS ARE NOT UNDER NWS QUALITY CONTROL AND MAY NOT
  REPORT WEATHER SUCH AS PRECIPITATION AND FOG.

KYZ079-080-083-085-087-088-110-112-115-119-120-011600
...EASTERN KENTUCKY...

CITY           SKY/WX    TMP DP  RH WIND       PRES   REMARKS
JACKSON        SUNNY     80  68  66 CALM      30.20S
LONDON         SUNNY     80  65  59 CALM      30.20R
SOMERSET*      SUNNY     77  68  73 CALM      30.20S
MONTICELLO*    SUNNY     81  70  69 CALM      30.21S
MIDDLESBORO*   SUNNY     72  68  86 CALM      30.21S
HAZARD APT*    SUNNY     81  68  65 CALM      30.20S
BLACK MTN*       N/A     68  64  88 NW3         N/A
PIKEVILLE APT* SUNNY     73  70  88 CALM      30.21S
BIG SANDY*     SUNNY     80  69  68 CALM      30.20S
MOREHEAD APT*  SUNNY     79  68  69 CALM      30.20S
$$

KYZ035-036-041-042-044-050-067-078-099-011600
...CENTRAL KENTUCKY...

CITY           SKY/WX    TMP DP  RH WIND       PRES   REMARKS
MT STERLING*   MOSUNNY   81  68  65 CALM      30.20S
FLEMING/MASON* SUNNY     79  68  69 CALM      30.18F
DANVILLE*      SUNNY     79  64  61 E3        30.19S
RICHMOND*      SUNNY     79  64  61 E6        30.18S
LEXINGTON      SUNNY     82  64  54 CALM      30.18S
FRANKFORT      SUNNY     81  66  60 CALM      30.16S
$$

KYZ091>093-OHZ055-061-077-WVZ005-015-034-035-042-011600
...SOUTHERN OHIO/WEST VIRGINIA...

CITY           SKY/WX    TMP DP  RH WIND       PRES   REMARKS
COVINGTON      SUNNY     82  67  60 NW3       30.16S
COLUMBUS       MOSUNNY   80  69  69 CALM      30.15S
DAYTON         MOSUNNY   81  69  67 W5        30.17S
WILMINGTON     SUNNY     82  67  60 CALM      30.16S
HUNTINGTON     SUNNY     80  68  66 CALM      30.17S
CHARLESTON     PTSUNNY   79  67  66 CALM      30.18S
PINEVILLE*     SUNNY     76  69  79 MISG      30.27F
BECKLEY        SUNNY     76  64  66 N6        30.26R
BLUEFIELD      MOSUNNY   78  63  59 CALM      30.27S
$$

VAZ002-007-008-TNZ017-027-036-066-071-011600
...SOUTHWEST VIRGINIA/EAST TENNESSEE...

CITY           SKY/WX    TMP DP  RH WIND       PRES   REMARKS
WISE*          SUNNY     77  63  61 NE7       30.28S
JONESVILLE*    SUNNY     79  66  65 CALM      30.22S
ABINGDON*      SUNNY     80  62  55 S3        30.23S
BRISTOL        SUNNY     77  65  66 CALM      30.21R
KNOXVILLE      MOSUNNY   81  75  82 NE5       30.17S
OAK RIDGE      SUNNY     80  67  64 CALM      30.19R
CROSSVILLE     SUNNY     79  65  62 CALM      30.22R
NASHVILLE      PTSUNNY   83  67  58 VRB3      30.17R
$$

...KEY TO REMARKS...
VSB - VISIBILITY IN MILES
WCI - WIND CHILL INDEX
HX  - HEAT INDEX

$$


USA.gov is the U.S. government's official web portal to all federal, state and local government web resources and services.